TimeCST,TemperatureF,Dew PointF,Humidity,Sea Level PressureIn,VisibilityMPH,Wind Direction,Wind SpeedMPH,Gust SpeedMPH,PrecipitationIn,Events,Conditions,WindDirDegrees,DateUTC
12:54 AM,32.0,30.2,93,29.82,2.5,ENE,10.4,-,0.00,,Overcast,60,2012-11-10 06:54:00
12:56 AM,32.0,30.0,92,29.87,2.5,ENE,11.5,-,0.00,,Overcast,60,2012-11-10 06:56:00
1:12 AM,32.0,30.2,93,29.82,3.0,NE,10.4,-,0.00,,Overcast,50,2012-11-10 07:12:00
1:30 AM,32.0,30.2,93,29.80,2.5,ENE,13.8,-,0.00,,Overcast,60,2012-11-10 07:30:00
1:56 AM,32.0,30.9,96,29.84,2.0,NE,10.4,-,0.00,,Overcast,40,2012-11-10 07:56:00
2:05 AM,32.0,30.2,93,29.77,2.0,ENE,12.7,-,N/A,,Overcast,60,2012-11-10 08:05:00
2:56 AM,32.0,30.9,96,29.82,2.0,ENE,10.4,-,0.01,,Overcast,60,2012-11-10 08:56:00
3:56 AM,33.1,30.9,92,29.79,2.5,ENE,12.7,-,N/A,,Overcast,60,2012-11-10 09:56:00
4:56 AM,33.1,32.0,96,29.77,2.5,ENE,10.4,-,0.01,,Overcast,60,2012-11-10 10:56:00
5:32 AM,33.8,30.2,87,29.70,3.0,ENE,13.8,-,N/A,,Overcast,60,2012-11-10 11:32:00
6:11 AM,33.8,30.2,87,29.69,2.5,ENE,12.7,-,N/A,,Overcast,60,2012-11-10 12:11:00
7:38 AM,33.8,30.2,87,29.66,3.0,ENE,13.8,-,N/A,,Overcast,60,2012-11-10 13:38:00
7:56 AM,33.1,32.0,96,29.72,3.0,ENE,15.0,-,N/A,,Overcast,60,2012-11-10 13:56:00
8:29 AM,33.8,32.0,93,29.67,2.0,ENE,13.8,-,N/A,,Overcast,70,2012-11-10 14:29:00
8:56 AM,33.1,32.0,96,29.71,1.8,ENE,11.5,-,N/A,,Overcast,60,2012-11-10 14:56:00
9:52 AM,33.8,32.0,93,29.65,2.0,NE,10.4,-,N/A,,Overcast,40,2012-11-10 15:52:00
9:56 AM,33.1,32.0,96,29.70,2.0,NE,9.2,-,N/A,,Overcast,40,2012-11-10 15:56:00
10:56 AM,33.1,32.0,96,29.68,2.5,NNE,9.2,-,N/A,,Overcast,30,2012-11-10 16:56:00
11:34 AM,33.8,32.0,93,29.61,1.5,NE,11.5,-,N/A,,Overcast,40,2012-11-10 17:34:00
11:56 AM,33.1,32.0,96,29.65,1.5,NE,12.7,-,N/A,,Overcast,40,2012-11-10 17:56:00
12:56 PM,33.1,32.0,96,29.62,1.2,NE,11.5,-,N/A,,Overcast,40,2012-11-10 18:56:00
1:56 PM,33.1,32.0,96,29.61,1.2,NNE,10.4,-,N/A,,Overcast,20,2012-11-10 19:56:00
2:38 PM,33.8,32.0,93,29.57,2.0,North,9.2,-,0.00,,Overcast,350,2012-11-10 20:38:00
2:56 PM,33.1,32.0,96,29.62,2.0,North,10.4,-,0.01,Rain,Light Rain,360,2012-11-10 20:56:00
3:13 PM,33.8,32.0,93,29.58,1.8,North,11.5,-,0.01,Snow,Light Snow,350,2012-11-10 21:13:00
3:22 PM,33.8,30.2,87,29.58,2.5,North,11.5,-,0.01,Rain,Light Rain,350,2012-11-10 21:22:00
3:37 PM,33.8,30.2,87,29.58,3.0,North,13.8,-,0.01,,Overcast,350,2012-11-10 21:37:00
3:56 PM,32.0,30.9,96,29.62,4.0,North,15.0,-,0.02,,Overcast,350,2012-11-10 21:56:00
4:20 PM,32.0,30.2,93,29.58,5.0,NNW,16.1,-,0.00,,Overcast,340,2012-11-10 22:20:00
4:56 PM,32.0,30.0,92,29.62,6.0,North,16.1,-,0.00,,Overcast,350,2012-11-10 22:56:00
5:48 PM,32.0,30.2,93,29.59,6.0,North,16.1,-,0.00,Rain,Light Freezing Rain,350,2012-11-10 23:48:00
5:56 PM,32.0,30.0,92,29.64,5.0,North,19.6,24.2,0.00,Rain,Light Freezing Rain,350,2012-11-10 23:56:00
6:56 PM,30.9,28.9,92,29.65,4.0,NNW,17.3,-,0.00,Snow,Light Snow,340,2012-11-11 00:56:00
7:04 PM,30.2,28.4,93,29.59,2.5,NNW,18.4,-,0.00,Snow,Light Snow,330,2012-11-11 01:04:00
7:10 PM,30.2,28.4,93,29.59,3.0,NNW,20.7,-,0.00,Snow,Light Snow,330,2012-11-11 01:10:00
7:17 PM,30.2,28.4,93,29.61,2.5,NNW,18.4,25.3,0.00,Snow,Light Snow,330,2012-11-11 01:17:00
7:41 PM,30.2,28.4,93,29.58,1.5,NNW,18.4,-,0.00,Snow,Light Snow,330,2012-11-11 01:41:00
7:56 PM,26.1,24.1,92,29.66,2.0,NW,23.0,31.1,0.00,Snow,Light Snow,320,2012-11-11 01:56:00
8:06 PM,26.6,23.0,86,29.61,5.0,NW,24.2,29.9,0.00,Snow,Light Snow,310,2012-11-11 02:06:00
8:31 PM,24.8,21.2,86,29.62,2.5,WNW,24.2,31.1,0.01,Snow,Light Snow,300,2012-11-11 02:31:00
8:39 PM,24.8,21.2,86,29.62,1.8,NW,25.3,32.2,0.02,Snow,Light Snow,310,2012-11-11 02:39:00
8:56 PM,24.1,21.0,88,29.66,1.2,NW,24.2,35.7,0.02,Snow,Light Snow,310,2012-11-11 02:56:00
9:07 PM,24.8,21.2,86,29.61,0.8,NW,25.3,33.4,0.01,Snow,Light Snow,310,2012-11-11 03:07:00
9:23 PM,23.0,19.4,86,29.62,0.5,NW,23.0,34.5,0.01,Fog-Snow,Snow,310,2012-11-11 03:23:00
9:36 PM,23.0,19.4,86,29.62,1.2,NW,25.3,31.1,0.01,Snow,Light Snow,310,2012-11-11 03:36:00
9:49 PM,23.0,19.4,86,29.62,2.5,NW,24.2,33.4,0.01,Snow,Light Snow,320,2012-11-11 03:49:00
9:56 PM,23.0,19.0,85,29.68,3.0,NW,20.7,33.4,0.01,Snow,Light Snow,310,2012-11-11 03:56:00
10:56 PM,23.0,19.0,85,29.71,2.5,NW,18.4,28.8,0.00,Snow,Light Snow,310,2012-11-11 04:56:00
11:52 PM,21.2,17.6,86,29.64,4.0,NW,20.7,32.2,0.00,Snow,Light Snow,310,2012-11-11 05:52:00
11:56 PM,21.9,18.0,85,29.70,4.0,WNW,21.9,32.2,0.00,Snow,Light Snow,300,2012-11-11 05:56:00